Location: Franzen
(48.6167°N, 15.3833°E)
Time: 17:43:06
(UTC+00:00)

A-11 Canister half - Pass Details

Date: 03 August 2021
Orbit: 1515 x 1685 km, 47.2° (Epoch: 19 September)

Event Time Altitude Azimuth Distance (km) Brightness Sun altitude
Rises 16:04:22 0° 238° (WSW) 4,773 12.5 22.8°
Reaches altitude 10° 16:07:26 10° 236° (SW) 3,812 12.1 22.3°
Maximum altitude 16:17:03 67° 157° (SSE) 1,762 9.5 20.7°
Drops below altitude 10° 16:27:00 10° 78° (ENE) 3,937 10.6 19.1°
Sets 16:30:13 0° 76° (ENE) 4,936 11.1 18.5°
